Retour au catalogue

STARLINK-3289

ActifCommunicationsVLEO
NORAD 50173·PAYLOAD·🇺🇸 United States

Lancé Dec 18, 2021 depuis Vandenberg Space Force Base

Loading…

Prochains Passages (prochaines 24 heures)

TLE

FraisSource: CelesTrak SupGP

Époque: Sep 15, 2026, 01:53 UTC

1 50173C 21125T   26258.07895833  .00035273  00000+0  17633-2 0  2582
2 50173  53.2125 102.3519 0002532 118.9290 257.7175 15.16919415    16

Suivez STARLINK-3289 en temps réel avec AllMySat

Download on the App Store